Regional Weather Roundup
Issued by NWS

Home | Current Version | Previous Version | Text Only | Print | Product List | Glossary On
Versions: 1 2 3 4 5 6 7 8 9 10 11 12 13 14 15 16 17 18 19 20 21 22 23 24 25 26 27
000
ASUS45 KSLC 250410
RWRUT

UTAH REGIONAL WEATHER ROUNDUP
NATIONAL WEATHER SERVICE SALT LAKE CITY UT
1000 PM MDT SUN SEP 24 2017

UTZ001>011-023>025-250500-

NORTHERN UTAH

CITY           SKY/WX    TMP DP  RH WIND       PRES   REMARKS
BRIGHAM CITY   CLOUDY    46  40  82 E3        30.12S
HILL AFB       CLOUDY    42  39  92 SE5       30.11R
LOGAN          CLOUDY    45  40  82 CALM      30.10R
OGDEN          CLOUDY    44  40  85 S8        30.10S
SALT LAKE CITY CLOUDY    45  43  93 SE8       30.11R
TOOELE VALLEY  CLOUDY    45  39  81 S8        30.11R
WENDOVER       CLOUDY    51  36  56 W5        30.10R
HEBER CITY     CLOUDY    37  36  93 W3        30.11R
WEST JORDAN    CLOUDY    43  43 100 SW6       30.13R

$$

UTZ011>015-024>027-250500-

CENTRAL/NORTHEAST UTAH

CITY           SKY/WX    TMP DP  RH WIND       PRES   REMARKS
PROVO AIRPORT  CLOUDY    44  40  85 E6        30.14R
MOAB/CANYONLAN CLEAR     51  33  50 W12       30.03R
DELTA          CLEAR     41  37  87 NE5       30.13R
PRICE          PTCLDY    39  32  76 NW6       30.09R WCI  35
RICHFIELD      CLEAR     37  37 100 CALM      30.16S
ROOSEVELT      CLEAR     43  34  70 SW7       30.08R
VERNAL         CLOUDY    43  38  82 SW5       30.07R

$$

UTZ013>016-019>022-027-250500-

SOUTHERN UTAH

CITY           SKY/WX    TMP DP  RH WIND       PRES   REMARKS
BRYCE CANYON   CLEAR     30  23  75 NW8       30.15R WCI  22
CEDAR CITY     CLEAR     41  33  73 NE6       30.09R
MILFORD        CLEAR     42  35  76 NW8       30.11R
ST GEORGE      PTCLDY    63  31  30 N7        30.00R
HANKSVILLE     CLEAR     50  28  43 NW9G18    30.09S
KANAB          CLEAR     50  27  40 N10       30.09R
BLANDING         N/A     40  24  51 N9        30.12S WCI  34

$$

REGIONAL REPORTS     COLORADO/ARIZONA

CITY           SKY/WX    TMP DP  RH WIND       PRES   REMARKS
CRAIG, CO      CLOUDY    39  32  76 SW5       30.10R
GRAND JUNCTION CLEAR     46  29  51 CALM      30.03R
RIFLE, CO      CLEAR     47  30  51 E6        30.06R
MONTROSE, CO   CLEAR     45  26  47 VRB6      30.07R
CORTEZ, CO     CLEAR     38  30  73 E5        30.06R WCI  34
PAGE, AZ       CLEAR     59  29  31 W7        29.99R
GRAND CANYON   CLEAR     33  13  43 NE3       30.08S
KINGMAN, AZ    CLEAR     57  24  28 NE6       29.99R
FLAGSTAFF, AZ  CLEAR     38  12  34 CALM      30.08R

$$

REGIONAL REPORTS    NEVADA/IDAHO/WYOMING

CITY           SKY/WX    TMP DP  RH WIND       PRES   REMARKS
LAS VEGAS, NV  CLEAR     69  27  20 CALM      29.95R
ELY, NY        CLEAR     39  26  59 CALM      30.14R
ELKO, NV       CLEAR     40  31  70 CALM      30.12R
POCATELLO, ID  CLOUDY    48  33  56 SW8       30.08R
BURLEY, ID     CLEAR     40  32  73 S6        30.06S
FORT BRIDGER,  CLOUDY    35  35 100 W12G17    30.11S WCI  27
EVANSTON, WY   FOG       33  33 100 SW9       30.10S VSB 1/4 WCI  25
ROCK SPRINGS,  CLOUDY    34  33  96 E16       30.07S WCI  24

$$




USA.gov is the U.S. government's official web portal to all federal, state and local government web resources and services.